Location: Unspecified
(58.9933°N, 5.6375°E)
Time: 09:24:17
(UTC+02:00)

Cosmos 2058 - Visible Passes

Search period start: 02 July 2016 00:00
Search period end: 12 July 2016 00:00
Orbit: 564 x 587 km, 82.5° (Epoch: 02 July)

Date Brightness Start Highest point End Pass type
(mag) Time Alt. Az. Time Alt. Az. Time Alt. Az.
02 Jul 5.7 00:21:53 10° W 00:24:40 17° NW 00:27:27 10° NNW visible
03 Jul 5.8 00:26:06 10° W 00:28:29 15° NW 00:30:51 10° NNW visible
04 Jul 6.0 00:30:28 10° WNW 00:32:19 13° NW 00:34:09 10° NNW visible
05 Jul 6.3 00:35:09 10° WNW 00:36:10 11° NW 00:37:11 10° NNW visible
